DW1920 Weather Reports


time (UTC)temp
C
wind
direction
speed
KPH
gust
KPH
rain 1hr
cm
rain 24hr
cm
rain mn
cm
humidity
%
barometer
mb
20181015110003 7 114 3.2 6.4 0.00 0.00 0.00 91 1021.6
20181015105003 7 69 3.2 8.0 0.00 0.00 0.00 92 1021.5
20181015104002 6 95 6.4 12.9 0.00 0.00 0.00 92 1021.5
20181015103003 6 97 6.4 11.3 0.00 0.00 0.00 91 1021.6
20181015102002 6 62 6.4 11.3 0.00 0.00 0.00 90 1021.6
20181015101002 7 60 4.8 11.3 0.00 0.00 0.00 90 1021.7
20181015100003 8 53 8.0 14.5 0.00 0.00 0.00 92 1021.5
20181015095002 8 49 11.3 14.5 0.00 0.00 0.00 92 1021.6
20181015094002 8 31 11.3 14.5 0.00 0.00 0.00 92 1021.5
20181015093003 8 34 11.3 16.1 0.00 0.00 0.00 92 1021.6
20181015092002 8 38 12.9 16.1 0.00 0.00 0.00 92 1021.7
20181015091003 8 29 9.7 16.1 0.00 0.00 0.00 91 1021.6
20181015090003 8 34 12.9 16.1 0.00 0.00 0.00 92 1021.6
20181015085002 7 30 9.7 14.5 0.00 0.00 0.00 92 1021.5
20181015084003 7 37 11.3 14.5 0.00 0.00 0.00 93 1021.6
20181015083004 6 29 8.0 11.3 0.00 0.00 0.00 95 1022.1
20181015082002 5 12 4.8 6.4 0.00 0.00 0.00 92 1022.3
20181015081002 5 4 4.8 6.4 0.00 0.00 0.00 92 1022.3
20181015080003 5 354 4.8 4.8 0.00 0.00 0.00 92 1022.3
20181015075002 5 354 3.2 4.8 0.00 0.00 0.00 91 1022.1
20181015074003 5 351 3.2 3.2 0.00 0.00 0.00 91 1022.0
20181015073002 5 351 3.2 3.2 0.00 0.00 0.00 91 1021.8
20181015072002 5 351 1.6 3.2 0.00 0.00 0.00 91 1021.8
20181015071003 5 351 0.0 1.6 0.00 0.00 0.00 91 1021.8
20181015070003 5 351 1.6 3.2 0.00 0.00 0.00 90 1021.8
20181015065002 5 351 1.6 3.2 0.00 0.00 0.00 90 1021.6
20181015064003 5 351 0.0 1.6 0.00 0.00 0.00 90 1021.7
20181015063003 5 351 1.6 3.2 0.00 0.00 0.00 90 1021.8
20181015062002 5 351 1.6 3.2 0.00 0.00 0.00 89 1021.9
20181015061003 5 351 1.6 3.2 0.00 0.00 0.00 89 1022.1
20181015060003 5 351 1.6 3.2 0.00 0.00 0.00 88 1022.1
20181015055002 6 351 1.6 3.2 0.00 0.00 0.00 88 1022.3
20181015054003 6 351 0.0 1.6 0.00 0.00 0.00 87 1022.7
20181015053003 6 351 0.0 3.2 0.00 0.00 0.00 86 1022.4
20181015052002 6 351 1.6 4.8 0.00 0.00 0.00 85 1022.2
20181015051003 7 326 3.2 8.0 0.00 0.00 0.00 84 1022.2
20181015050002 7 317 6.4 8.0 0.00 0.00 0.00 84 1022.0
20181015045003 7 318 4.8 14.5 0.00 0.00 0.00 85 1022.1
20181015044003 8 301 12.9 16.1 0.00 0.00 0.00 84 1022.1
20181015043002 8 297 12.9 16.1 0.00 0.00 0.00 83 1022.2
20181015042002 8 296 12.9 17.7 0.00 0.00 0.00 82 1022.2
20181015041003 8 294 12.9 16.1 0.00 0.00 0.00 82 1022.2
20181015040002 8 290 12.9 16.1 0.00 0.00 0.00 82 1022.0
20181015035003 8 282 12.9 14.5 0.00 0.00 0.00 82 1021.9
20181015034003 8 285 11.3 14.5 0.00 0.00 0.00 83 1022.0
20181015033002 8 283 12.9 14.5 0.00 0.00 0.00 83 1022.1
20181015032002 8 281 12.9 16.1 0.00 0.00 0.00 83 1022.0
20181015031002 8 277 11.3 14.5 0.00 0.00 0.00 82 1021.9
20181015030002 8 284 11.3 12.9 0.00 0.00 0.00 82 1021.7
20181015025002 8 279 11.3 12.9 0.00 0.00 0.00 83 1021.7
20181015024003 8 282 11.3 14.5 0.00 0.00 0.00 83 1021.6
20181015023002 8 273 11.3 12.9 0.00 0.00 0.00 83 1021.8
20181015022003 8 278 8.0 11.3 0.00 0.00 0.00 84 1021.6
20181015021002 8 278 6.4 11.3 0.00 0.00 0.00 82 1021.6
20181015020002 8 277 6.4 11.3 0.00 0.00 0.00 81 1021.5
20181015015003 9 269 4.8 6.4 0.00 0.00 0.00 78 1021.6
20181015014002 10 265 4.8 9.7 0.00 0.00 0.00 77 1021.5
20181015013003 10 270 8.0 11.3 0.00 0.00 0.00 76 1021.3
20181015012002 10 261 4.8 14.5 0.00 0.00 0.00 76 1021.3
20181015011002 10 269 9.7 14.5 0.00 0.00 0.00 76 1021.4
20181015010003 10 269 6.4 11.3 0.00 0.00 0.00 75 1021.4
20181015005002 11 268 6.4 12.9 0.00 0.00 0.00 74 1021.3
20181015004002 11 268 8.0 14.5 0.00 0.00 0.00 74 1021.2
20181015003003 11 268 9.7 12.9 0.00 0.00 0.00 74 1021.1
20181015002003 11 263 11.3 14.5 0.00 0.00 0.00 74 1021.1
20181015001004 11 261 8.0 16.1 0.00 0.00 0.00 74 1021.1
20181015000003 11 266 11.3 16.1 0.00 0.00 0.00 74 1021.1
20181014235005 11 256 9.7 17.7 0.00 0.00 0.00 74 1021.0
20181014234003 11 255 9.7 17.7 0.00 0.00 0.00 74 1020.8
20181014233003 11 251 8.0 16.1 0.00 0.00 0.00 75 1020.8
20181014232002 11 235 6.4 16.1 0.00 0.00 0.00 76 1020.8
20181014231003 11 231 8.0 17.7 0.00 0.00 0.00 75 1020.8
20181014230002 11 233 8.0 12.9 0.00 0.00 0.00 75 1020.8
20181014225003 11 238 9.7 19.3 0.00 0.00 0.00 74 1020.9
20181014224003 11 230 9.7 20.9 0.00 0.00 0.00 75 1020.9
20181014223002 11 244 8.0 22.5 0.00 0.00 0.00 75 1020.8
20181014222003 11 230 11.3 25.7 0.00 0.00 0.00 76 1020.7
20181014221003 11 221 17.7 25.7 0.00 0.00 0.00 76 1020.6
20181014220002 11 216 17.7 25.7 0.00 0.00 0.00 77 1020.6
20181014215002 11 218 17.7 27.4 0.00 0.00 0.00 76 1020.5
20181014214003 11 218 17.7 27.4 0.00 0.00 0.00 76 1020.4
20181014213003 11 216 19.3 27.4 0.00 0.00 0.00 76 1020.4
20181014212003 11 213 19.3 29.0 0.00 0.00 0.00 75 1020.4
20181014211003 11 216 20.9 30.6 0.00 0.00 0.00 75 1020.2
20181014210002 11 218 20.9 29.0 0.00 0.00 0.00 74 1020.1
20181014205002 11 222 19.3 29.0 0.00 0.00 0.00 71 1020.1
20181014204003 11 212 19.3 25.7 0.00 0.00 0.00 70 1020.2
20181014203012 11 218 19.3 27.4 0.00 0.00 0.00 71 1020.0
20181014202003 11 219 20.9 32.2 0.00 0.00 0.00 70 1020.2
20181014201002 11 222 20.9 29.0 0.00 0.00 0.00 70 1020.2
20181014200003 11 229 14.5 25.7 0.00 0.00 0.00 68 1020.1
20181014195002 11 248 11.3 20.9 0.00 0.00 0.00 66 1020.0
20181014194003 11 238 12.9 27.4 0.00 0.00 0.00 68 1020.0
20181014193003 11 248 11.3 24.1 0.00 0.00 0.00 66 1019.9
20181014192003 11 247 9.7 22.5 0.00 0.00 0.00 67 1019.8
20181014191002 11 247 8.0 27.4 0.00 0.00 0.00 67 1019.8
20181014190003 11 240 16.1 25.7 0.00 0.00 0.00 69 1019.8
20181014185002 11 229 20.9 30.6 0.00 0.00 0.00 69 1019.8
20181014184002 11 228 19.3 30.6 0.00 0.00 0.00 71 1019.8
20181014183003 11 234 14.5 30.6 0.00 0.00 0.00 70 1019.7
20181014182002 11 221 19.3 29.0 0.00 0.03 0.00 67 1019.6
20181014181004 11 218 20.9 29.0 0.00 0.05 0.00 67 1019.5
20181014180003 11 241 14.5 29.0 0.00 0.05 0.00 67 1019.6
20181014175002 11 227 20.9 32.2 0.00 0.08 0.00 68 1019.7
20181014174003 11 229 19.3 27.4 0.00 0.08 0.00 68 1019.7
20181014173003 12 236 9.7 22.5 0.00 0.10 0.00 64 1019.9
20181014172002 12 244 9.7 19.3 0.00 0.10 0.00 60 1019.9
20181014171003 11 265 9.7 20.9 0.00 0.13 0.00 59 1019.8
20181014170003 11 268 11.3 22.5 0.00 0.15 0.00 56 1019.5
20181014165002 11 268 12.9 19.3 0.00 0.15 0.00 59 1019.5
20181014164003 11 240 6.4 17.7 0.00 0.15 0.00 63 1019.6
20181014163003 11 273 8.0 20.9 0.00 0.20 0.00 57 1019.9
20181014162003 11 279 11.3 22.5 0.00 0.25 0.00 59 1020.0
20181014161002 11 277 11.3 20.9 0.00 0.25 0.00 60 1020.0
20181014160006 11 273 12.9 24.1 0.00 0.28 0.00 59 1020.1
20181014155003 10 286 12.9 19.3 0.00 0.28 0.00 62 1020.3
20181014154003 10 279 12.9 22.5 0.00 0.30 0.00 63 1020.2
20181014153003 10 290 16.1 29.0 0.00 0.33 0.00 61 1020.3
20181014152002 10 290 14.5 24.1 0.00 0.33 0.00 62 1020.3
20181014151003 10 310 11.3 25.7 0.00 0.33 0.00 62 1020.2
20181014150003 10 285 16.1 27.4 0.00 0.36 0.00 62 1020.2
20181014145003 9 310 19.3 29.0 0.00 0.48 0.00 60 1020.3
20181014144003 9 289 16.1 25.7 0.00 0.61 0.00 65 1020.1
20181014143002 8 308 19.3 33.8 0.00 0.64 0.00 62 1020.3
20181014142003 8 305 11.3 29.0 0.00 0.69 0.00 65 1020.4
20181014141003 8 295 19.3 29.0 0.00 0.74 0.00 63 1020.3
20181014140002 8 294 14.5 29.0 0.00 0.79 0.00 65 1020.1
20181014135003 8 302 11.3 27.4 0.00 0.81 0.00 65 1020.2
20181014134003 8 299 17.7 25.7 0.00 0.84 0.00 65 1020.1
20181014133007 8 283 11.3 27.4 0.00 0.84 0.00 66 1020.2
20181014132006 8 296 19.3 29.0 0.00 0.84 0.00 65 1020.4
20181014131002 8 291 20.9 27.4 0.00 0.84 0.00 66 1020.2
20181014130003 7 284 16.1 24.1 0.00 0.84 0.00 68 1020.5
20181014125003 7 280 14.5 24.1 0.00 0.84 0.00 71 1020.5
20181014124002 7 279 12.9 20.9 0.00 0.84 0.00 76 1020.3
20181014123003 7 274 11.3 19.3 0.00 0.84 0.00 78 1020.1
20181014122002 6 279 11.3 19.3 0.00 0.84 0.00 77 1019.9
20181014121003 6 275 6.4 16.1 0.00 0.84 0.00 78 1019.7
20181014120002 6 272 12.9 16.1 0.00 0.84 0.00 77 1019.6
20181014115003 6 273 6.4 12.9 0.00 0.84 0.00 78 1019.4
20181014114003 6 271 8.0 12.9 0.00 0.84 0.00 78 1019.3
20181014113003 6 278 6.4 14.5 0.00 0.84 0.00 78 1019.1
20181014112003 6 273 9.7 16.1 0.00 0.84 0.00 78 1019.0
20181014111004 6 268 11.3 17.7 0.00 0.84 0.00 77 1018.9